Time,TemperatureF,DewpointF,PressureIn,WindDirection,WindDirectionDegrees,WindSpeedMPH,WindSpeedGustMPH,Humidity,HourlyPrecipIn,Conditions,Clouds,dailyrainin,SoftwareType,DateUTC
2013-01-14 00:04:00,52.0,52.0,29.80,SW,220,3.0,-999.0,100,-99.99,,,-99.99,,2013-01-14 05:04:00,
2013-01-14 00:12:00,52.0,52.0,29.79,North,0,0.0,-999.0,100,-99.99,,,-99.99,,2013-01-14 05:12:00,
2013-01-14 00:22:00,52.0,52.0,29.77,South,180,5.0,-999.0,100,-99.99,,,-99.99,,2013-01-14 05:22:00,
2013-01-14 00:33:00,52.0,52.0,29.76,South,180,8.0,-999.0,100,-99.99,,,-99.99,,2013-01-14 05:33:00,
2013-01-14 00:42:00,54.0,54.0,29.76,South,190,9.0,-999.0,100,-99.99,,,-99.99,,2013-01-14 05:42:00,
2013-01-14 00:52:00,54.0,54.0,29.75,South,190,9.0,-999.0,100,-99.99,,,-99.99,,2013-01-14 05:52:00,
2013-01-14 01:03:00,54.0,54.0,29.75,South,190,9.0,-999.0,100,-99.99,,,-99.99,,2013-01-14 06:03:00,
2013-01-14 01:12:00,54.0,54.0,29.74,SSW,200,10.0,16.0,100,-99.99,,,-99.99,,2013-01-14 06:12:00,
2013-01-14 01:22:00,54.0,54.0,29.73,SSW,200,7.0,-999.0,100,-99.99,,,-99.99,,2013-01-14 06:22:00,
2013-01-14 01:33:00,54.0,54.0,29.71,South,190,9.0,-999.0,100,-99.99,,,-99.99,,2013-01-14 06:33:00,
2013-01-14 01:43:00,54.0,54.0,29.71,South,180,8.0,-999.0,100,-99.99,,,-99.99,,2013-01-14 06:43:00,
2013-01-14 01:52:00,54.0,54.0,29.70,SSW,200,7.0,-999.0,100,-99.99,,,-99.99,,2013-01-14 06:52:00,
2013-01-14 02:02:00,54.0,54.0,29.70,SSW,200,7.0,-999.0,100,-99.99,,,-99.99,,2013-01-14 07:02:00,
2013-01-14 02:12:00,55.0,54.0,29.69,SSW,200,7.0,-999.0,93,-99.99,,,-99.99,,2013-01-14 07:12:00,
2013-01-14 02:22:00,55.0,54.0,29.70,SW,230,5.0,-999.0,93,-99.99,,,-99.99,,2013-01-14 07:22:00,
2013-01-14 02:33:00,54.0,54.0,29.70,SW,230,8.0,-999.0,100,-99.99,,,-99.99,,2013-01-14 07:33:00,
2013-01-14 02:42:00,54.0,54.0,29.69,SW,220,8.0,-999.0,100,-99.99,,,-99.99,,2013-01-14 07:42:00,
2013-01-14 02:52:00,55.0,54.0,29.69,SW,230,12.0,16.0,93,-99.99,,,-99.99,,2013-01-14 07:52:00,
2013-01-14 03:02:00,55.0,54.0,29.69,SW,230,12.0,16.0,93,-99.99,,,-99.99,,2013-01-14 08:02:00,
2013-01-14 03:12:00,55.0,54.0,29.70,SW,230,8.0,-999.0,93,-99.99,,,-99.99,,2013-01-14 08:12:00,
2013-01-14 03:22:00,55.0,54.0,29.69,SW,230,8.0,17.0,93,-99.99,,,-99.99,,2013-01-14 08:22:00,
2013-01-14 03:33:00,55.0,54.0,29.69,SW,230,10.0,17.0,93,-99.99,,,-99.99,,2013-01-14 08:33:00,
2013-01-14 03:42:00,55.0,54.0,29.69,SW,220,9.0,17.0,93,-99.99,,,-99.99,,2013-01-14 08:42:00,
2013-01-14 03:52:00,57.0,54.0,29.70,SW,230,14.0,18.0,87,-99.99,,,-99.99,,2013-01-14 08:52:00,
2013-01-14 04:03:00,57.0,54.0,29.70,SW,230,14.0,18.0,87,-99.99,,,-99.99,,2013-01-14 09:03:00,
2013-01-14 04:12:00,57.0,52.0,29.69,SW,230,15.0,22.0,82,-99.99,,,-99.99,,2013-01-14 09:12:00,
2013-01-14 04:22:00,57.0,54.0,29.72,WSW,240,22.0,29.0,87,-99.99,,,-99.99,,2013-01-14 09:22:00,
2013-01-14 04:33:00,55.0,54.0,29.75,WSW,250,28.0,38.0,93,-99.99,,,-99.99,,2013-01-14 09:33:00,
2013-01-14 04:43:00,55.0,54.0,29.76,West,260,30.0,40.0,93,-99.99,,,-99.99,,2013-01-14 09:43:00,
2013-01-14 04:52:00,50.0,50.0,29.79,WNW,290,23.0,37.0,100,-99.99,,,-99.99,,2013-01-14 09:52:00,
2013-01-14 05:02:00,50.0,50.0,29.79,WNW,290,23.0,37.0,100,-99.99,,,-99.99,,2013-01-14 10:02:00,
2013-01-14 05:12:00,48.0,48.0,29.81,West,280,13.0,25.0,100,-99.99,,,-99.99,,2013-01-14 10:12:00,
2013-01-14 05:23:00,46.0,46.0,29.80,WSW,250,9.0,-999.0,100,-99.99,,,-99.99,,2013-01-14 10:23:00,
2013-01-14 05:32:00,46.0,46.0,29.82,West,260,12.0,-999.0,100,-99.99,,,-99.99,,2013-01-14 10:32:00,
2013-01-14 05:42:00,46.0,46.0,29.83,West,260,12.0,-999.0,100,-99.99,,,-99.99,,2013-01-14 10:42:00,
2013-01-14 05:52:00,46.0,46.0,29.85,WSW,250,12.0,20.0,100,-99.99,,,-99.99,,2013-01-14 10:52:00,
2013-01-14 06:02:00,46.0,46.0,29.85,WSW,250,12.0,20.0,100,-99.99,,,-99.99,,2013-01-14 11:02:00,
2013-01-14 06:12:00,46.0,46.0,29.86,West,260,16.0,20.0,100,-99.99,,,-99.99,,2013-01-14 11:12:00,
2013-01-14 06:22:00,46.0,46.0,29.88,West,260,15.0,20.0,100,-99.99,,,-99.99,,2013-01-14 11:22:00,
2013-01-14 06:33:00,46.0,46.0,29.89,West,260,15.0,25.0,100,-99.99,,,-99.99,,2013-01-14 11:33:00,
2013-01-14 06:42:00,46.0,46.0,29.90,West,260,18.0,24.0,100,-99.99,,,-99.99,,2013-01-14 11:42:00,
2013-01-14 06:53:00,45.0,45.0,29.92,West,270,18.0,23.0,100,-99.99,,,-99.99,,2013-01-14 11:53:00,
2013-01-14 07:03:00,45.0,45.0,29.92,West,270,18.0,23.0,100,-99.99,,,-99.99,,2013-01-14 12:03:00,
2013-01-14 07:12:00,45.0,45.0,29.94,West,270,17.0,24.0,100,-99.99,,,-99.99,,2013-01-14 12:12:00,
2013-01-14 07:23:00,43.0,43.0,29.96,West,260,22.0,30.0,100,-99.99,,,-99.99,,2013-01-14 12:23:00,
2013-01-14 07:33:00,43.0,43.0,29.98,West,260,21.0,29.0,100,-99.99,,,-99.99,,2013-01-14 12:33:00,
2013-01-14 07:43:00,43.0,43.0,29.98,West,270,18.0,28.0,100,-99.99,,,-99.99,,2013-01-14 12:43:00,
2013-01-14 07:53:00,43.0,41.0,30.01,West,260,21.0,28.0,93,-99.99,,,-99.99,,2013-01-14 12:53:00,
2013-01-14 08:03:00,43.0,41.0,30.01,West,260,21.0,28.0,93,-99.99,,,-99.99,,2013-01-14 13:03:00,
2013-01-14 08:12:00,41.0,39.0,30.02,West,270,21.0,31.0,93,-99.99,,,-99.99,,2013-01-14 13:12:00,
2013-01-14 08:23:00,39.0,37.0,30.03,West,270,18.0,31.0,93,-99.99,,,-99.99,,2013-01-14 13:23:00,
2013-01-14 08:33:00,39.0,37.0,30.05,West,270,18.0,25.0,93,-99.99,,,-99.99,,2013-01-14 13:33:00,
2013-01-14 08:43:00,39.0,37.0,30.05,West,260,22.0,-999.0,93,-99.99,,,-99.99,,2013-01-14 13:43:00,
2013-01-14 08:53:00,39.0,37.0,30.06,West,270,20.0,25.0,93,-99.99,,,-99.99,,2013-01-14 13:53:00,
2013-01-14 09:03:00,39.0,37.0,30.06,West,270,20.0,25.0,93,-99.99,,,-99.99,,2013-01-14 14:03:00,
2013-01-14 09:13:00,39.0,37.0,30.08,West,260,20.0,27.0,93,-99.99,,,-99.99,,2013-01-14 14:13:00,
2013-01-14 09:23:00,39.0,37.0,30.09,West,270,17.0,-999.0,93,-99.99,,,-99.99,,2013-01-14 14:23:00,
2013-01-14 09:33:00,39.0,36.0,30.09,West,270,17.0,23.0,86,-99.99,,,-99.99,,2013-01-14 14:33:00,
2013-01-14 09:43:00,39.0,36.0,30.10,West,270,20.0,23.0,86,-99.99,,,-99.99,,2013-01-14 14:43:00,
2013-01-14 09:53:00,39.0,36.0,30.10,West,280,17.0,22.0,86,-99.99,,,-99.99,,2013-01-14 14:53:00,
2013-01-14 10:03:00,39.0,36.0,30.10,West,280,17.0,22.0,86,-99.99,,,-99.99,,2013-01-14 15:03:00,
2013-01-14 10:12:00,39.0,34.0,30.11,West,260,21.0,28.0,80,-99.99,,,-99.99,,2013-01-14 15:12:00,
2013-01-14 10:23:00,39.0,36.0,30.12,West,260,17.0,25.0,86,-99.99,,,-99.99,,2013-01-14 15:23:00,
2013-01-14 10:33:00,39.0,36.0,30.13,West,260,16.0,27.0,86,-99.99,,,-99.99,,2013-01-14 15:33:00,
2013-01-14 10:43:00,39.0,34.0,30.13,West,270,20.0,28.0,80,-99.99,,,-99.99,,2013-01-14 15:43:00,
2013-01-14 10:53:00,39.0,32.0,30.13,West,280,21.0,28.0,75,-99.99,,,-99.99,,2013-01-14 15:53:00,
2013-01-14 11:03:00,39.0,32.0,30.13,West,280,21.0,28.0,75,-99.99,,,-99.99,,2013-01-14 16:03:00,
2013-01-14 11:12:00,39.0,32.0,30.14,West,260,17.0,23.0,75,-99.99,,,-99.99,,2013-01-14 16:12:00,
2013-01-14 11:23:00,39.0,32.0,30.14,West,260,20.0,25.0,75,-99.99,,,-99.99,,2013-01-14 16:23:00,
2013-01-14 11:33:00,39.0,32.0,30.14,West,280,20.0,25.0,75,-99.99,,,-99.99,,2013-01-14 16:33:00,
2013-01-14 11:43:00,39.0,30.0,30.14,West,270,22.0,27.0,69,-99.99,,,-99.99,,2013-01-14 16:43:00,
2013-01-14 11:53:00,39.0,30.0,30.15,West,260,17.0,28.0,69,-99.99,,,-99.99,,2013-01-14 16:53:00,
2013-01-14 12:03:00,39.0,30.0,30.15,West,260,17.0,28.0,69,-99.99,,,-99.99,,2013-01-14 17:03:00,
2013-01-14 12:12:00,41.0,32.0,30.16,WSW,250,22.0,25.0,70,-99.99,,,-99.99,,2013-01-14 17:12:00,
2013-01-14 12:23:00,39.0,30.0,30.16,West,260,18.0,27.0,69,-99.99,,,-99.99,,2013-01-14 17:23:00,
2013-01-14 12:33:00,39.0,30.0,30.16,West,270,21.0,27.0,69,-99.99,,,-99.99,,2013-01-14 17:33:00,
2013-01-14 12:43:00,37.0,30.0,30.16,West,280,17.0,28.0,74,-99.99,,,-99.99,,2013-01-14 17:43:00,
2013-01-14 12:53:00,37.0,30.0,30.16,West,260,18.0,24.0,74,-99.99,,,-99.99,,2013-01-14 17:53:00,
2013-01-14 13:03:00,37.0,30.0,30.16,West,260,18.0,24.0,74,-99.99,,,-99.99,,2013-01-14 18:03:00,
2013-01-14 13:13:00,37.0,30.0,30.16,West,270,16.0,21.0,74,-99.99,,,-99.99,,2013-01-14 18:13:00,
2013-01-14 13:23:00,39.0,30.0,30.16,West,270,13.0,21.0,69,-99.99,,,-99.99,,2013-01-14 18:23:00,
2013-01-14 13:33:00,39.0,30.0,30.17,West,260,20.0,25.0,69,-99.99,,,-99.99,,2013-01-14 18:33:00,
2013-01-14 13:43:00,39.0,28.0,30.17,West,270,18.0,25.0,64,-99.99,,,-99.99,,2013-01-14 18:43:00,
2013-01-14 13:52:00,39.0,28.0,30.17,West,270,14.0,23.0,64,-99.99,,,-99.99,,2013-01-14 18:52:00,
2013-01-14 14:03:00,39.0,28.0,30.17,West,270,14.0,23.0,64,-99.99,,,-99.99,,2013-01-14 19:03:00,
2013-01-14 14:12:00,39.0,28.0,30.18,West,260,18.0,24.0,64,-99.99,,,-99.99,,2013-01-14 19:12:00,
2013-01-14 14:22:00,39.0,28.0,30.19,West,280,15.0,21.0,64,-99.99,,,-99.99,,2013-01-14 19:22:00,
2013-01-14 14:33:00,39.0,28.0,30.19,West,280,17.0,23.0,64,-99.99,,,-99.99,,2013-01-14 19:33:00,
2013-01-14 14:43:00,39.0,27.0,30.20,West,260,18.0,24.0,60,-99.99,,,-99.99,,2013-01-14 19:43:00,
2013-01-14 14:52:00,37.0,27.0,30.21,West,260,18.0,23.0,64,-99.99,,,-99.99,,2013-01-14 19:52:00,
2013-01-14 15:03:00,37.0,27.0,30.21,West,260,18.0,23.0,64,-99.99,,,-99.99,,2013-01-14 20:03:00,
2013-01-14 15:13:00,37.0,27.0,30.21,West,260,17.0,23.0,64,-99.99,,,-99.99,,2013-01-14 20:13:00,
2013-01-14 15:22:00,37.0,27.0,30.21,West,260,14.0,21.0,64,-99.99,,,-99.99,,2013-01-14 20:22:00,
2013-01-14 15:33:00,37.0,27.0,30.22,West,270,15.0,-999.0,64,-99.99,,,-99.99,,2013-01-14 20:33:00,
2013-01-14 15:43:00,37.0,27.0,30.22,West,270,16.0,-999.0,64,-99.99,,,-99.99,,2013-01-14 20:43:00,
2013-01-14 15:53:00,37.0,27.0,30.22,West,260,12.0,18.0,64,-99.99,,,-99.99,,2013-01-14 20:53:00,
2013-01-14 16:03:00,37.0,27.0,30.22,West,260,12.0,18.0,64,-99.99,,,-99.99,,2013-01-14 21:03:00,
2013-01-14 16:12:00,37.0,27.0,30.23,West,260,13.0,-999.0,64,-99.99,,,-99.99,,2013-01-14 21:12:00,
2013-01-14 16:23:00,37.0,27.0,30.23,West,270,14.0,21.0,64,-99.99,,,-99.99,,2013-01-14 21:23:00,
2013-01-14 16:33:00,36.0,27.0,30.22,West,270,12.0,18.0,69,-99.99,,,-99.99,,2013-01-14 21:33:00,
2013-01-14 16:43:00,36.0,27.0,30.22,West,260,15.0,18.0,69,-99.99,,,-99.99,,2013-01-14 21:43:00,
2013-01-14 16:53:00,36.0,27.0,30.22,West,270,10.0,20.0,69,-99.99,,,-99.99,,2013-01-14 21:53:00,
2013-01-14 17:03:00,36.0,27.0,30.23,West,270,10.0,-999.0,69,-99.99,,,-99.99,,2013-01-14 22:03:00,
2013-01-14 17:12:00,36.0,27.0,30.23,West,260,9.0,-999.0,69,-99.99,,,-99.99,,2013-01-14 22:12:00,
2013-01-14 17:23:00,36.0,27.0,30.23,West,270,10.0,-999.0,69,-99.99,,,-99.99,,2013-01-14 22:23:00,
2013-01-14 17:33:00,36.0,27.0,30.23,West,270,12.0,-999.0,69,-99.99,,,-99.99,,2013-01-14 22:33:00,
2013-01-14 17:43:00,36.0,27.0,30.23,West,270,8.0,17.0,69,-99.99,,,-99.99,,2013-01-14 22:43:00,
2013-01-14 17:52:00,36.0,27.0,30.24,West,270,12.0,16.0,69,-99.99,,,-99.99,,2013-01-14 22:52:00,
2013-01-14 18:03:00,36.0,27.0,30.24,West,270,12.0,16.0,69,-99.99,,,-99.99,,2013-01-14 23:03:00,
2013-01-14 18:12:00,36.0,27.0,30.25,West,260,10.0,-999.0,69,-99.99,,,-99.99,,2013-01-14 23:12:00,
2013-01-14 18:23:00,36.0,27.0,30.26,West,270,12.0,17.0,69,-99.99,,,-99.99,,2013-01-14 23:23:00,
2013-01-14 18:33:00,34.0,27.0,30.26,West,260,10.0,-999.0,74,-99.99,,,-99.99,,2013-01-14 23:33:00,
2013-01-14 18:43:00,34.0,27.0,30.26,West,260,13.0,16.0,74,-99.99,,,-99.99,,2013-01-14 23:43:00,
2013-01-14 18:53:00,34.0,27.0,30.27,West,260,13.0,17.0,74,-99.99,,,-99.99,,2013-01-14 23:53:00,
2013-01-14 19:03:00,34.0,27.0,30.27,West,260,13.0,17.0,74,-99.99,,,-99.99,,2013-01-15 00:03:00,
2013-01-14 19:12:00,34.0,27.0,30.27,West,260,12.0,-999.0,74,-99.99,,,-99.99,,2013-01-15 00:12:00,
2013-01-14 19:23:00,34.0,27.0,30.27,West,270,14.0,18.0,74,-99.99,,,-99.99,,2013-01-15 00:23:00,
2013-01-14 19:33:00,34.0,27.0,30.29,West,270,13.0,17.0,74,-99.99,,,-99.99,,2013-01-15 00:33:00,
2013-01-14 19:43:00,34.0,27.0,30.29,West,270,10.0,-999.0,74,-99.99,,,-99.99,,2013-01-15 00:43:00,
2013-01-14 19:52:00,34.0,27.0,30.29,West,260,10.0,-999.0,74,-99.99,,,-99.99,,2013-01-15 00:52:00,
2013-01-14 20:02:00,34.0,27.0,30.29,West,260,10.0,-999.0,74,-99.99,,,-99.99,,2013-01-15 01:02:00,
2013-01-14 20:12:00,34.0,27.0,30.30,West,260,9.0,-999.0,74,-99.99,,,-99.99,,2013-01-15 01:12:00,
2013-01-14 20:22:00,34.0,27.0,30.30,West,260,10.0,-999.0,74,-99.99,,,-99.99,,2013-01-15 01:22:00,
2013-01-14 20:32:00,34.0,27.0,30.30,West,260,9.0,-999.0,74,-99.99,,,-99.99,,2013-01-15 01:32:00,
2013-01-14 20:43:00,34.0,27.0,30.29,West,260,8.0,-999.0,74,-99.99,,,-99.99,,2013-01-15 01:43:00,
2013-01-14 20:52:00,34.0,27.0,30.28,West,280,8.0,-999.0,74,-99.99,,,-99.99,,2013-01-15 01:52:00,
2013-01-14 21:02:00,34.0,27.0,30.28,West,280,8.0,-999.0,74,-99.99,,,-99.99,,2013-01-15 02:02:00,
2013-01-14 21:12:00,34.0,27.0,30.27,West,270,7.0,-999.0,74,-99.99,,,-99.99,,2013-01-15 02:12:00,
2013-01-14 21:22:00,34.0,27.0,30.26,West,260,6.0,-999.0,74,-99.99,,,-99.99,,2013-01-15 02:22:00,
2013-01-14 21:33:00,34.0,27.0,30.28,West,260,7.0,-999.0,74,-99.99,,,-99.99,,2013-01-15 02:33:00,
2013-01-14 21:42:00,34.0,27.0,30.28,West,270,6.0,-999.0,74,-99.99,,,-99.99,,2013-01-15 02:42:00,
2013-01-14 21:52:00,34.0,27.0,30.27,West,270,8.0,-999.0,74,-99.99,,,-99.99,,2013-01-15 02:52:00,
2013-01-14 22:03:00,34.0,27.0,30.27,West,270,8.0,-999.0,74,-99.99,,,-99.99,,2013-01-15 03:03:00,
2013-01-14 22:12:00,32.0,27.0,30.27,West,260,6.0,-999.0,80,-99.99,,,-99.99,,2013-01-15 03:12:00,
2013-01-14 22:22:00,32.0,27.0,30.27,West,270,5.0,-999.0,80,-99.99,,,-99.99,,2013-01-15 03:22:00,
2013-01-14 22:33:00,32.0,27.0,30.27,West,280,6.0,-999.0,80,-99.99,,,-99.99,,2013-01-15 03:33:00,
2013-01-14 22:42:00,32.0,27.0,30.28,West,270,6.0,-999.0,80,-99.99,,,-99.99,,2013-01-15 03:42:00,
2013-01-14 22:52:00,32.0,27.0,30.29,West,270,6.0,-999.0,80,-99.99,,,-99.99,,2013-01-15 03:52:00,
2013-01-14 23:02:00,32.0,27.0,30.29,West,270,6.0,-999.0,80,-99.99,,,-99.99,,2013-01-15 04:02:00,
2013-01-14 23:12:00,32.0,27.0,30.29,WSW,240,5.0,-999.0,80,-99.99,,,-99.99,,2013-01-15 04:12:00,
2013-01-14 23:22:00,32.0,27.0,30.30,WSW,250,5.0,-999.0,80,-99.99,,,-99.99,,2013-01-15 04:22:00,
2013-01-14 23:32:00,32.0,27.0,30.30,WSW,250,6.0,-999.0,80,-99.99,,,-99.99,,2013-01-15 04:32:00,
2013-01-14 23:42:00,32.0,27.0,30.31,WSW,250,7.0,-999.0,80,-99.99,,,-99.99,,2013-01-15 04:42:00,
2013-01-14 23:52:00,32.0,27.0,30.30,WSW,250,6.0,-999.0,80,-99.99,,,-99.99,,2013-01-15 04:52:00,